Regional Weather Roundup
Issued by NWS

Home | Current Version | Previous Version | Graphics & Text | Print | Product List | Glossary On
Versions: 1 2 3 4 5 6 7 8 9 10 11 12 13 14 15 16 17 18 19 20 21 22 23 24 25 26 27 28 29 30 31 32 33 34 35 36 37 38 39 40 41 42 43 44 45 46 47 48 49 50
000
ASUS43 KLSX 022259
RWRMO

WEATHER SUMMARY FOR MISSOURI
NATIONAL WEATHER SERVICE SPRINGFIELD MO
600 PM CDT TUE JUN 02 2015

NOTE: "FAIR" INDICATES FEW OR NO CLOUDS BELOW 12,000 FEET WITH NO
       SIGNIFICANT WEATHER AND/OR OBSTRUCTIONS TO VISIBILITY.
       CURRENT SKY AND/OR WEATHER CONDITIONS ARE NOT AVAILABLE FOR
       CHILLICOTHE AND FARMINGTON.

MOZ001>031-035>038-043-044-053-054-030000-
...NORTHERN AND WESTERN MISSOURI...

CITY           SKY/WX    TMP DP  RH WIND       PRES   REMARKS
KANSAS CTY INT CLOUDY    73  61  65 SE17      29.97F
KANSAS C DTWN  PTSUNNY   75  59  57 E9        29.96F
LEE`S SUMMIT   MOSUNNY   73  59  61 VRB6      29.99F
ST JOSEPH      LGT RAIN  70  59  68 SE14      29.96F
CHILLICOTHE      N/A     73  58  59 SE9       30.02F
KIRKSVILLE     CLOUDY    68  57  68 SE8       30.05F

$$
MOZ066>068-077>081-088>096-101>105-030000-
...SOUTHWEST MISSOURI...

CITY           SKY/WX    TMP DP  RH WIND       PRES   REMARKS
SPRINGFIELD    SUNNY     75  59  57 SE5       30.00F
JOPLIN         PTSUNNY   79  66  64 E7        29.96F

$$
MOZ032>034-039>042-045>050-055>058-069>072-030000-
...CENTRAL MISSOURI...

CITY           SKY/WX    TMP DP  RH WIND       PRES   REMARKS
COLUMBIA       CLOUDY    69  57  65 SE9       30.05S
JEFFERSON CITY CLOUDY    69  56  62 E7        30.04F
ROLLA          CLOUDY    64  57  78 S5        30.05S
SEDALIA        SUNNY     72  58  61 E9        30.02F
OSAGE BEACH    MOSUNNY   70  55  60 E7        30.03F

$$
MOZ051-052-059>065-030000-
...EAST CENTRAL MISSOURI...

CITY           SKY/WX    TMP DP  RH WIND       PRES   REMARKS
ST LOUIS INTL  MOSUNNY   73  56  54 E7        30.04S
SPIRIT OF STL  PTSUNNY   73  58  59 S6        30.03S
ST CHARLES     MOSUNNY   72  57  59 SE5       30.03R

$$
MOZ072>076-082>087-097>100-106>115-030000-
...SOUTH CENTRAL AND SOUTHEAST MISSOURI...

CITY           SKY/WX    TMP DP  RH WIND       PRES   REMARKS
CAPE GIRARDEAU CLOUDY    65  58  78 E6        30.04F
FARMINGTON     CLOUDY    63  55  77 SE5       30.09S
POPLAR BLUFF   CLOUDY    65  56  72 NE5       30.03F
WEST PLAINS    MOSUNNY   71  58  63 VRB3      30.04S

$$


USA.gov is the U.S. government's official web portal to all federal, state and local government web resources and services.